Regional Weather Roundup
Issued by NWS

Home | Current Version | Previous Version | Text Only | Print | Product List | Glossary Off
Versions: 1 2 3 4 5 6 7 8 9 10 11 12 13 14 15 16 17 18 19 20 21 22 23 24 25 26 27 28 29 30 31 32 33 34 35 36 37 38 39 40 41 42 43 44 45 46 47 48 49 50

000
ASUS43 KLSX 112059
RWRMO

WEATHER SUMMARY FOR MISSOURI
NATIONAL WEATHER SERVICE SPRINGFIELD MO
400 PM CDT FRI JUL 11 2014

NOTE: "FAIR" INDICATES FEW OR NO CLOUDS BELOW 12,000 FEET WITH NO
       SIGNIFICANT WEATHER AND/OR OBSTRUCTIONS TO VISIBILITY.
       CURRENT SKY AND/OR WEATHER CONDITIONS ARE NOT AVAILABLE FOR
       CHILLICOTHE AND FARMINGTON.

MOZ001>031-035>038-043-044-053-054-112200-
...NORTHERN AND WESTERN MISSOURI...

CITY           SKY/WX    TMP DP  RH WIND       PRES   REMARKS
KANSAS CTY INT CLOUDY    86  72  62 SW14      30.02F HX  92
KANSAS C DTWN  PTSUNNY   89  72  56 S15       30.01F HX  96
LEE`S SUMMIT   CLOUDY    86  73  65 SW12      30.04F HX  93
ST JOSEPH      CLOUDY    85  74  69 S14       29.99F HX  92
CHILLICOTHE      N/A     86  74  67 S10       30.02F HX  94
KIRKSVILLE     CLOUDY    84  72  67 S8        30.05S

$$
MOZ066>068-077>081-088>096-101>105-112200-
...SOUTHWEST MISSOURI...

CITY           SKY/WX    TMP DP  RH WIND       PRES   REMARKS
SPRINGFIELD    MOSUNNY   88  70  55 SW10      30.12S HX  93
JOPLIN         SUNNY     91  68  46 SW8       30.09F HX  95

$$
MOZ032>034-039>042-045>050-055>058-069>072-112200-
...CENTRAL MISSOURI...

CITY           SKY/WX    TMP DP  RH WIND       PRES   REMARKS
COLUMBIA       PTSUNNY   87  73  62 S12       30.06F HX  94
JEFFERSON CITY PTSUNNY   89  73  59 S6        30.05F HX  97
ROLLA          MOSUNNY   88  71  57 S10       30.10F HX  94
SEDALIA        CLOUDY    89  74  60 SW15      30.06F HX  98
OSAGE BEACH    MOSUNNY   90  72  55 S9        30.08F HX  96

$$
MOZ051-052-059>065-112200-
...EAST CENTRAL MISSOURI...

CITY           SKY/WX    TMP DP  RH WIND       PRES   REMARKS
ST LOUIS INTL  PTSUNNY   89  68  49 S8        30.09F HX  93
SPIRIT OF STL  PTSUNNY   89  69  51 S9        30.07F HX  93
ST CHARLES     MOSUNNY   87  68  52 S10       30.08F HX  90

$$
MOZ072>076-082>087-097>100-106>115-112200-
...SOUTH CENTRAL AND SOUTHEAST MISSOURI...

CITY           SKY/WX    TMP DP  RH WIND       PRES   REMARKS
CAPE GIRARDEAU SUNNY     88  67  49 S8        30.12F HX  91
FARMINGTON     MOSUNNY   88  70  55 S8        30.15F HX  92
POPLAR BLUFF   MOSUNNY   88  69  53 S7        30.11F HX  92
WEST PLAINS    MOSUNNY   84  71  65 S8        30.16F

$$



USA.gov is the U.S. government's official web portal to all federal, state and local government web resources and services.